Location: Goettingen
(51.5300°N, 9.9433°E)
Time: 01:39:41
(UTC+02:00)

ISS - Pass Details

Date: 26 May 2023
Orbit: 411 x 419 km, 51.6° (Epoch: 04 June)

Event Time Altitude Azimuth Distance (km) Brightness Sun altitude
Rises 22:46:38 0° 283° (WNW) 2,357 0.9 -10.1°
Reaches altitude 10° 22:48:58 10° 268° (W) 1,493 -0.5 -10.3°
Maximum altitude 22:51:42 23° 214° (SW) 929 -2.2 -10.6°
Enters shadow 22:53:34 15° 170° (S) 1,225 -2.0 -10.7°
